Regional Weather Roundup
Issued by NWS

Home | Current Version | Previous Version | Graphics & Text | Print | Product List | Glossary On
Versions: 1 2 3 4 5 6 7 8 9 10 11 12 13 14 15 16 17 18 19 20 21 22 23 24 25 26 27 28 29 30 31 32 33 34 35 36 37 38 39 40 41 42 43 44 45 46 47 48 49 50
000
ASUS43 KBIS 220802
RWRND

NORTH DAKOTA REGIONAL WEATHER ROUNDUP
NATIONAL WEATHER SERVICE BISMARCK ND
300 AM CDT WED MAR 22 2017

NOTE: "FAIR" INDICATES FEW OR NO CLOUDS BELOW 12,000 FEET WITH NO
SIGNIFICANT WEATHER AND/OR OBSTRUCTIONS TO VISIBILITY.


NDZ001>003-009>011-017-220900-
NORTHWEST NORTH DAKOTA

CITY           SKY/WX    TMP DP  RH WIND       PRES   REMARKS
WILLISTON      CLOUDY    28  19  69 SE14      30.14F WCI  17
MINOT          MOCLDY    20  15  81 SE13      30.29F WCI   7
MINOT AFB      CLOUDY    19  14  84 SE18      30.29F WCI   3
$$

NDZ018>021-031>035-040>046-220900-
SOUTHWEST NORTH DAKOTA

CITY           SKY/WX    TMP DP  RH WIND       PRES   REMARKS
BISMARCK       CLOUDY    25  17  72 SE23      30.34F WCI  10
DICKINSON      CLOUDY    27  17  66 SE25G35   30.11F WCI  12
GARRISON         N/A     22  16  78 SE21      30.27F WCI   6
HETTINGER ARPT CLOUDY    27  19  72 SE24G35   30.15F WCI  12
$$

NDZ004>008-012>016-024-026-027-054-220900-
NORTHEAST NORTH DAKOTA

CITY           SKY/WX    TMP DP  RH WIND       PRES   REMARKS
GRAND FORKS    CLEAR     17   8  67 E3        30.51F
DEVILS LAKE    FAIR      15  11  83 SE13      30.43F WCI   1
$$

NDZ022-023-025-028>030-036>039-047>053-220900-
SOUTHEAST NORTH DAKOTA

CITY           SKY/WX    TMP DP  RH WIND       PRES   REMARKS
FARGO          CLOUDY    19  14  81 SE5       30.52S WCI  12
JAMESTOWN      FAIR      17  13  84 SE13      30.42F WCI   4
$$





USA.gov is the U.S. government's official web portal to all federal, state and local government web resources and services.